Location: St. Louis
(38.6270°N, 90.1994°W)
Time: 19:59:40
(UTC-06:00)

Altair - Pass Details

Date: 02 December 2021
Orbit: 1501 x 1683 km, 47.2° (Epoch: 26 January)

Event Time Altitude Azimuth Distance (km) Brightness Sun altitude
Rises 20:10:49 0° 294° (WNW) 4,682 10.8 -40.6°
Reaches altitude 10° 20:13:58 10° 298° (WNW) 3,682 10.0 -41.2°
Enters shadow 20:20:28 46° 326° (NW) 1,939 8.0 -42.5°
